Regional Weather Roundup
Issued by NWS

Home | Current Version | Previous Version | Text Only | Print | Product List | Glossary On
Versions: 1 2 3 4 5 6 7 8 9 10 11 12 13 14 15 16 17 18 19 20 21 22 23 24 25 26 27 28 29 30 31 32 33 34 35 36 37 38 39 40 41 42 43 44 45 46 47 48 49 50
000
ASUS44 KOUN 200610
RWROK

WEATHER ROUNDUP FOR OKLAHOMA
NATIONAL WEATHER SERVICE NORMAN OK
1200 AM CST MON FEB 20 2017

NOTE: "FAIR" INDICATES FEW OR NO CLOUDS BELOW 12,000 FEET WITH NO
      SIGNIFICANT WEATHER AND/OR OBSTRUCTIONS TO VISIBILITY.

OKZ001>007-009>012-014-015-017-200700-
NORTHWEST OKLAHOMA AND THE PANHANDLE

CITY           SKY/WX    TMP DP  RH WIND       PRES   REMARKS
GAGE           CLOUDY    56  47  71 S9        29.78F
6HR MIN TEMP:  56; 6HR MAX TEMP:  66; 6HR PCP: TRACE;

GUYMON         PTCLDY    51  33  50 SW15      29.72F
ENID/WOODRING  TSTM      59  59 100 S9        29.82R
$$

OKZ016-021>023-033>039-044-045-200700-
SOUTHWEST OKLAHOMA

CITY           SKY/WX    TMP DP  RH WIND       PRES   REMARKS
LAWTON/REGL    LGT RAIN  58  55  90 S3        29.85R
6HR MIN TEMP:  58; 6HR MAX TEMP:  67; 6HR PCP:  1.15;

LAWTON/FT SILL DRIZZLE   58  57  98 CALM      29.84R
FREDERICK      RAIN      57  54  89 S7        29.83R FOG
CLINTON        LGT RAIN  57  52  83 SE13      29.81F
HOBART         LGT RAIN  56  53  90 CALM      29.81F
ALTUS AFB      CLOUDY    55  53  91 SE6       29.82F
$$

OKZ018>020-024>031-200700-
CENTRAL OKLAHOMA

CITY           SKY/WX    TMP DP  RH WIND       PRES   REMARKS
OKLAHOMA CITY  TSTM      58  57  97 NE7       29.81F
6HR MIN TEMP:  58; 6HR MAX TEMP:  64; 6HR PCP:  1.40;

OKC/WILEY POST RAIN      58  58 100 N6        29.80F FOG
OKC/TINKER AFB LGT RAIN  59  59 100 CALM      29.81F
STILLWATER     TSTM      57  56  96 SW6       29.84F FOG
GUTHRIE        TSTM      57  57 100 S6        29.86R FOG
$$

OKZ008-013-054>072-200700-
NORTHEAST OKLAHOMA

CITY           SKY/WX    TMP DP  RH WIND       PRES   REMARKS
TULSA          CLOUDY    66  58  75 SE16      29.84S
6HR MIN TEMP:  66; 6HR MAX TEMP:  70;

TULSA/JONES    CLOUDY    65  58  78 SE10      29.86S
BARTLESVILLE   CLOUDY    65  58  78 S14G25    29.86S
MUSKOGEE       PTCLDY    65  58  78 SE15      29.89S
$$

OKZ032-040>043-046>053-073>077-200700-
SOUTH CENTRAL/SOUTHEAST OKLAHOMA

CITY           SKY/WX    TMP DP  RH WIND       PRES   REMARKS
ARDMORE/DWNTWN CLOUDY    64  55  72 CALM      29.86R
MCALESTER      CLOUDY    69  55  60 SE13G20   29.88S
$$





USA.gov is the U.S. government's official web portal to all federal, state and local government web resources and services.